Ord, NE

11:07 PM CDT on October 23, 2017 (GMT -0500)
Sharp

Weather History for KODX - November, 2013

Change the Weather History Date:

Thursday, November 7, 2013

  Actual Average Record
Temperature  
Mean Temperature 36 °F 40 °F  
Max Temperature 48 °F 53 °F 79 °F (1999)
Min Temperature 23 °F 28 °F 15 °F (1996)
Degree Days  
Heating Degree Days 29 25  
Month to date heating degree days 185 163  
Since 1 July heating degree days 759 783  
Cooling Degree Days 0 0  
Month to date cooling degree days 0 0  
Year to date cooling degree days 907 845  
Moisture  
Dew Point 27 °F    
Average Humidity 71    
Maximum Humidity 96    
Minimum Humidity 46    
Precipitation  
Precipitation 0.00 in 0.03 in 0.53 in (1918)
Month to date precipitation 0.47 0.31  
Year to date precipitation 24.32 23.59  
Sea Level Pressure  
Sea Level Pressure 30.37 in    
Wind  
Wind Speed 4 mph (WNW)    
Max Wind Speed 9 mph    
Max Gust Speed 12 mph    
Visibility 10 miles    
Events      
T = Trace of Precipitation, MM = Missing Value Source: NWS Daily Summary

Daily Weather History Graph

Daily Weather History Graph

Search for Another Location

Airport or City:

Trip Planner

Search our weather history database for the weather conditions in past years. The results will help you decide how hot, cold, wet, or windy it might be!

Date:

Astronomy

Nov. 07, 2013 Rise Set
Actual Time 7:15 AM CST 5:23 PM CST
Civil Twilight 6:46 AM CST 5:52 PM CST
Nautical Twilight 6:12 AM CST 6:25 PM CST
Astronomical Twilight 5:40 AM CST 6:57 PM CST
Moon 11:25 AM CST (11/7) 9:36 PM CST (11/7)
Length of Visible Light 11h 06m
Length of Day
10h 07m
Waxing Crescent, 23% of the Moon is Illuminated
Nov 7
Waxing Crescent
Nov 9
First Quarter
Nov 17
Full
Nov 25
Last Quarter
Dec 2
New

Hourly Weather History & Observations

Time (CST) Temp. Windchill Dew Point Humidity Pressure Visibility Wind Dir Wind Speed Gust Speed Precip Events Conditions
12:53 AM 26.1 °F - 23.0 °F 88% 30.36 in 10.0 mi Calm Calm - N/A   Clear
1:53 AM 25.0 °F 18.1 °F 21.9 °F 88% 30.37 in 10.0 mi NNW 5.8 mph - N/A   Clear
2:53 AM 32.0 °F 25.6 °F 27.0 °F 82% 30.37 in 10.0 mi West 6.9 mph - N/A   Clear
3:53 AM 27.0 °F 19.5 °F 24.1 °F 89% 30.38 in 10.0 mi West 6.9 mph - N/A   Clear
4:53 AM 28.9 °F 21.1 °F 25.0 °F 85% 30.41 in 10.0 mi NW 8.1 mph - N/A   Clear
5:53 AM 24.1 °F 17.0 °F 21.9 °F 91% 30.44 in 10.0 mi NW 5.8 mph - N/A   Clear
6:53 AM 23.0 °F 14.7 °F 21.0 °F 92% 30.46 in 10.0 mi NW 6.9 mph - N/A   Clear
7:53 AM 26.1 °F 21.9 °F 23.0 °F 88% 30.48 in 10.0 mi North 3.5 mph - N/A   Clear
8:53 AM 32.0 °F 28.7 °F 28.0 °F 85% 30.49 in 10.0 mi North 3.5 mph - N/A   Clear
9:53 AM 37.0 °F 31.6 °F 30.9 °F 79% 30.49 in 10.0 mi NNW 6.9 mph - N/A   Clear
10:53 AM 39.9 °F 35.1 °F 30.0 °F 68% 30.47 in 10.0 mi NW 6.9 mph - N/A   Clear
11:53 AM 45.0 °F 42.6 °F 28.0 °F 52% 30.45 in 10.0 mi North 4.6 mph - N/A   Clear
12:53 PM 46.0 °F 43.1 °F 28.9 °F 51% 30.42 in 10.0 mi NW 5.8 mph - N/A   Clear
1:53 PM 46.0 °F 42.5 °F 30.0 °F 54% 30.40 in 10.0 mi West 6.9 mph - N/A   Mostly Cloudy
2:53 PM 46.9 °F - 30.9 °F 54% 30.37 in 10.0 mi SW 5.8 mph - N/A   Clear
3:53 PM 48.0 °F - 28.9 °F 48% 30.35 in 10.0 mi Calm Calm - N/A   Clear
4:53 PM 46.0 °F 44.8 °F 30.9 °F 56% 30.34 in 10.0 mi South 3.5 mph - N/A   Clear
5:53 PM 37.0 °F - 28.9 °F 73% 30.35 in 10.0 mi Calm Calm - N/A   Clear
6:53 PM 35.1 °F - 28.0 °F 76% 30.34 in 10.0 mi Calm Calm - N/A   Clear
7:53 PM 35.1 °F - 28.9 °F 78% 30.32 in 10.0 mi Calm Calm - N/A   Clear
8:53 PM 35.1 °F 32.2 °F 27.0 °F 72% 30.28 in 10.0 mi SSE 3.5 mph - N/A   Clear
9:53 PM 36.0 °F 33.3 °F 28.9 °F 76% 30.25 in 10.0 mi Variable 3.5 mph - N/A   Clear
10:53 PM 37.9 °F 34.4 °F 30.0 °F 73% 30.22 in 10.0 mi SE 4.6 mph - N/A   Clear
11:53 PM 39.0 °F 34.0 °F 30.9 °F 73% 30.18 in 10.0 mi SE 6.9 mph - N/A   Clear